Location: ???? ????
(41.4149°N, 22.8816°E)
Time: 13:39:00
(UTC+00:00)

SL-27 R/B - Pass Details

Date: 14 July 2020
Orbit: 420 x 470 km, 74.7° (Epoch: 03 August)

Event Time Altitude Azimuth Distance (km) Brightness Sun altitude
Exits shadow 02:20:45 10° 214° (SSW) 1,623 4.6 -8.1°
Reaches altitude 10° 02:20:49 10° 214° (SW) 1,592 4.6 -8.0°
Maximum altitude 02:24:14 50° 291° (WNW) 586 2.8 -7.5°
Drops below altitude 10° 02:27:37 10° 8° (N) 1,577 5.9 -7.0°
Sets 02:29:44 0° 14° (NNE) 2,443 7.0 -6.7°
